{"data":{"norad_id":65802,"intl_designator":"2025-218M","name":"STARLINK-34919","alt_names":[],"object_type":"PAYLOAD","status":"ACTIVE","operator":null,"country":"US","launch_date":"2025-09-26","launch_site_code":"AFWTR","launch_vehicle":null,"mission":null,"orbit_class":"UNKNOWN","rcs_meters":null,"size_class":null,"mass_kg":null,"dimensions":null,"purposes":["comms"],"wikipedia_slug":null,"has_3d_model":false,"image_url":null,"decayed_at":null,"tle_current":{"epoch":"2026-05-25T03:15:11.855232Z","epoch_age_seconds":53453,"freshness":"FRESH","line1":"1 65802U 25218M   26145.13555388  .00001814  00000+0  12969-3 0  9998","line2":"2 65802  97.4486   7.9415 0002344  74.3683 285.7802 15.05659416 36475","mean_motion":15.05659416,"eccentricity":0.0002344,"inclination_deg":97.4486,"raan_deg":7.9415,"arg_perigee_deg":74.3683,"mean_anomaly_deg":285.7802,"bstar":0.00012969,"rev_number":3647,"period_min":95.639158809604,"perigee_km":547.8584375859,"apogee_km":551.1061055004,"semimajor_km":6927.6192715431,"source":"CELESTRAK","updated_at":"2026-05-25T13:38:20.938292Z"}}}